Time,TemperatureF,DewpointF,PressureIn,WindDirection,WindDirectionDegrees,WindSpeedMPH,WindSpeedGustMPH,Humidity,HourlyPrecipIn,Conditions,Clouds,dailyrainin,SoftwareType,DateUTC
2013-07-10 00:00:00,67.1,54.1,30.42,NE,45,0.0,0.0,63,0.00,CLR,FEW,0.00,WeatherDisplay:10.37,2013-07-09 23:00:00,
2013-07-10 00:29:00,66.2,54.1,30.42,NE,45,0.0,0.0,65,0.00,CLR,FEW,0.00,WeatherDisplay:10.37,2013-07-09 23:29:00,
2013-07-10 01:00:00,65.5,54.2,30.42,NE,45,0.0,1.0,67,0.00,CLR,FEW,0.00,WeatherDisplay:10.37,2013-07-10 00:00:00,
2013-07-10 01:29:00,65.1,54.2,30.42,NE,45,0.0,0.0,68,0.00,CLR,FEW,0.00,WeatherDisplay:10.37,2013-07-10 00:29:00,
2013-07-10 02:00:00,65.1,55.1,30.42,NE,45,0.0,0.0,70,0.00,CLR,FEW,0.00,WeatherDisplay:10.37,2013-07-10 01:00:00,
2013-07-10 02:29:00,65.5,55.8,30.42,NE,45,0.0,2.0,71,0.00,CLR,FEW,0.00,WeatherDisplay:10.37,2013-07-10 01:29:00,
2013-07-10 02:59:00,64.6,55.0,30.41,NE,45,0.0,2.0,71,0.00,CLR,FEW,0.00,WeatherDisplay:10.37,2013-07-10 01:59:00,
2013-07-10 03:29:00,63.7,54.5,30.41,NE,45,0.0,1.0,72,0.00,CLR,FEW,0.00,WeatherDisplay:10.37,2013-07-10 02:29:00,
2013-07-10 04:00:00,63.5,54.7,30.40,NE,45,0.0,1.0,73,0.00,CLR,FEW,0.00,WeatherDisplay:10.37,2013-07-10 03:00:00,
2013-07-10 04:29:00,63.0,54.2,30.40,NE,45,0.0,1.0,73,0.00,CLR,FEW,0.00,WeatherDisplay:10.37,2013-07-10 03:29:00,
2013-07-10 04:59:00,62.1,53.7,30.40,NE,45,0.0,1.0,74,0.00,CLR,FEW,0.00,WeatherDisplay:10.37,2013-07-10 03:59:00,
2013-07-10 05:29:00,62.1,53.7,30.40,NE,45,0.0,1.0,74,0.00,CLR,FEW,0.00,WeatherDisplay:10.37,2013-07-10 04:29:00,
2013-07-10 05:59:00,61.9,53.6,30.40,NE,45,0.0,1.0,74,0.00,CLR,FEW,0.00,WeatherDisplay:10.37,2013-07-10 04:59:00,
2013-07-10 06:29:00,62.5,54.5,30.40,NE,45,0.0,1.0,75,0.00,CLR,FEW,0.00,WeatherDisplay:10.37,2013-07-10 05:29:00,
2013-07-10 06:59:00,63.5,55.4,30.40,NE,45,0.0,2.0,75,0.00,CLR,FEW,0.00,WeatherDisplay:10.37,2013-07-10 05:59:00,
2013-07-10 07:29:00,64.5,56.1,30.40,NE,45,0.0,1.0,74,0.00,CLR,FEW,0.00,WeatherDisplay:10.37,2013-07-10 06:29:00,
2013-07-10 07:59:00,65.1,55.1,30.40,NE,45,0.0,6.0,70,0.00,CLR,FEW,0.00,WeatherDisplay:10.37,2013-07-10 06:59:00,
2013-07-10 08:29:00,65.5,54.2,30.40,NE,45,0.0,8.0,67,0.00,CLR,FEW,0.00,WeatherDisplay:10.37,2013-07-10 07:29:00,
2013-07-10 08:59:00,66.4,54.7,30.40,NE,45,0.0,13.0,66,0.00,CLR,FEW,0.00,WeatherDisplay:10.37,2013-07-10 07:59:00,
2013-07-10 09:29:00,66.9,54.8,30.41,NE,45,0.0,6.0,65,0.00,CLR,FEW,0.00,WeatherDisplay:10.37,2013-07-10 08:29:00,
2013-07-10 10:00:00,66.7,54.6,30.40,NE,45,0.0,6.0,65,0.00,CLR,FEW,0.00,WeatherDisplay:10.37,2013-07-10 09:00:00,
2013-07-10 10:29:00,65.8,54.2,30.41,NE,45,0.0,10.0,66,0.00,CLR,FEW,0.00,WeatherDisplay:10.37,2013-07-10 09:29:00,
2013-07-10 10:59:00,65.7,54.1,30.41,NE,45,0.0,10.0,66,0.00,CLR,FEW,0.00,WeatherDisplay:10.37,2013-07-10 09:59:00,
2013-07-10 11:29:00,64.2,53.8,30.41,NE,45,0.0,4.0,69,0.00,CLR,FEW,0.00,WeatherDisplay:10.37,2013-07-10 10:29:00,
2013-07-10 11:59:00,64.0,54.1,30.41,NE,45,0.0,6.0,70,0.00,CLR,FEW,0.00,WeatherDisplay:10.37,2013-07-10 10:59:00,
2013-07-10 12:29:00,64.2,54.2,30.41,NE,45,0.0,2.0,70,0.00,CLR,FEW,0.00,WeatherDisplay:10.37,2013-07-10 11:29:00,
2013-07-10 12:59:00,64.4,54.4,30.41,NE,45,0.0,11.0,70,0.00,CLR,FEW,0.00,WeatherDisplay:10.37,2013-07-10 11:59:00,
2013-07-10 13:29:00,65.1,55.1,30.41,NE,45,0.0,7.0,70,0.00,CLR,FEW,0.00,WeatherDisplay:10.37,2013-07-10 12:29:00,
2013-07-10 13:59:00,67.3,56.8,30.41,NE,45,0.0,4.0,69,0.00,CLR,FEW,0.00,WeatherDisplay:10.37,2013-07-10 12:59:00,
2013-07-10 14:29:00,69.1,56.4,30.40,NE,45,0.0,5.0,64,0.00,CLR,FEW,0.00,WeatherDisplay:10.37,2013-07-10 13:29:00,
2013-07-10 14:59:00,70.0,56.4,30.41,NE,45,0.0,5.0,62,0.00,CLR,FEW,0.00,WeatherDisplay:10.37,2013-07-10 13:59:00,
2013-07-10 15:29:00,72.0,56.8,30.40,NE,45,0.0,3.0,59,0.00,CLR,FEW,0.00,WeatherDisplay:10.37,2013-07-10 14:29:00,
2013-07-10 15:59:00,71.8,55.7,30.40,NE,45,0.0,2.0,57,0.00,CLR,FEW,0.00,WeatherDisplay:10.37,2013-07-10 14:59:00,
2013-07-10 16:29:00,71.5,55.0,30.39,NE,45,0.0,5.0,56,0.00,CLR,FEW,0.00,WeatherDisplay:10.37,2013-07-10 15:29:00,
2013-07-10 16:59:00,70.3,55.3,30.39,NE,45,0.0,6.0,59,0.00,CLR,FEW,0.00,WeatherDisplay:10.37,2013-07-10 15:59:00,
2013-07-10 17:29:00,70.0,55.5,30.39,NE,45,0.0,5.0,60,0.00,CLR,FEW,0.00,WeatherDisplay:10.37,2013-07-10 16:29:00,
2013-07-10 17:59:00,71.2,56.2,30.38,NE,45,0.0,0.0,59,0.00,CLR,FEW,0.00,WeatherDisplay:10.37,2013-07-10 16:59:00,
2013-07-10 18:29:00,71.2,55.2,30.38,NE,45,0.0,5.0,57,0.00,CLR,FEW,0.00,WeatherDisplay:10.37,2013-07-10 17:29:00,
2013-07-10 18:59:00,70.5,55.5,30.37,NE,45,0.0,1.0,59,0.00,CLR,FEW,0.00,WeatherDisplay:10.37,2013-07-10 17:59:00,
2013-07-10 19:29:00,68.5,54.5,30.37,NE,45,0.0,2.0,61,0.00,CLR,FEW,0.00,WeatherDisplay:10.37,2013-07-10 18:29:00,
2013-07-10 19:59:00,67.6,54.6,30.37,NE,45,0.0,0.0,63,0.00,CLR,FEW,0.00,WeatherDisplay:10.37,2013-07-10 18:59:00,
2013-07-10 20:29:00,67.4,54.4,30.37,NE,45,0.0,0.0,63,0.00,CLR,FEW,0.00,WeatherDisplay:10.37,2013-07-10 19:29:00,
2013-07-10 21:00:00,65.8,53.7,30.37,NE,45,0.0,0.0,65,0.00,CLR,FEW,0.00,WeatherDisplay:10.37,2013-07-10 20:00:00,
2013-07-10 21:30:00,64.0,53.7,30.37,NE,45,0.0,0.0,69,0.00,CLR,FEW,0.00,WeatherDisplay:10.37,2013-07-10 20:30:00,
2013-07-10 22:00:00,63.0,53.5,30.37,NE,45,0.0,1.0,71,0.00,CLR,FEW,0.00,WeatherDisplay:10.37,2013-07-10 21:00:00,
2013-07-10 22:30:00,62.8,53.6,30.38,NE,45,0.0,0.0,72,0.00,CLR,FEW,0.00,WeatherDisplay:10.37,2013-07-10 21:30:00,
2013-07-10 23:00:00,62.9,53.7,30.38,NE,45,0.0,0.0,72,0.00,CLR,FEW,0.00,WeatherDisplay:10.37,2013-07-10 22:00:00,
2013-07-10 23:30:00,63.0,53.8,30.38,NE,45,0.0,0.0,72,0.00,CLR,FEW,0.00,WeatherDisplay:10.37,2013-07-10 22:30:00,